weather.gov     
National Weather Service

Terminal Aerodrome Forecast
NWS Homepage
This page is being discontinued on March 12, 2014.
The same data is available at this site. Please update your bookmarks.
Thank you, and we apologize for the inconvenience.
Please send an email to SR-SRH.Webmaster@noaa.gov with any concerns.


Current Version
Previous Version:    01  02  03  04  05  06  07  08  09  10  11  12  13  14  15  16  17  18  19  20  21  22  23  24  25  26  27  28  29  30  
   31  32  33  34  35  36  37  38  39  
[Printable]
457
FTUS41 KRNK 010535
TAFLWB
TAF
KLWB 010535Z 0106/0206 00000KT P6SM SCT045 OVC090
      TEMPO 0113/0116 P6SM -SNPL OVC045
     FM011800 17007KT P6SM SCT040 OVC100
     FM012300 17008KT P6SM -RA OVC035
     FM020300 19006KT 5SM -RA BR OVC015=




457
FTUS41 KRNK 010535
TAFLWB
TAF
KLWB 010535Z 0106/0206 00000KT P6SM SCT045 OVC090
      TEMPO 0113/0116 P6SM -SNPL OVC045
     FM011800 17007KT P6SM SCT040 OVC100
     FM012300 17008KT P6SM -RA OVC035
     FM020300 19006KT 5SM -RA BR OVC015=


U.S. Dept. of Commerce
NOAA National Weather Service
1325 East West Highway
Silver Spring, MD 20910
E-mail: w-nws.webmaster@noaa.gov
Page last modified: May 16, 2007
NATIONAL WEATHER SERVICE: for Safety, for Work, for Fun - FOR LIFE